This demonstration page uses our WeatherBlox Daily Observations layout. Learn more.

Left ArrowRight Arrow

Hourly Observations for November 1, 2015

Temp ( °F °C ) Dew Point ( °F °C ) Humidity (%) Winds ( mph kmh ) Pressure ( in mb ) Visibility ( mi km ) Precip ( " mm )
8:53 am 08:53 Cloudy 61 16 54 12 77 77 S 5 7 30.06 1018 10 16 0.00 0.00
9:53 am 09:53 Cloudy 61 16.1 54 12.2 78 78 SSE 6 9 30.09 1019 10 16 0.00 0.03
10:53 am 10:53 Cloudy 63 17.2 54 12.2 73 73 S 9 15 30.09 1019 10 16 0.00 0.00
11:53 am 11:53 Cloudy 62 16.7 56 13.3 80 80 SSE 3 6 30.09 1019 10 16 0.00 0.03
12:53 pm 12:53 Mostly Cloudy 63 17.2 56 13.3 78 78 SE 5 7 30.06 1018 10 16 0.00 0.00
1:53 pm 13:53 Mostly Cloudy 65 18.3 56 13.3 73 73 SSE 9 15 30.04 1017 10 16 0.00 0.00
2:04 pm 14:04 Cloudy 64 18 55 13 73 73 S 6 9 30.03 1017 10 16 0.00 0.00
2:53 pm 14:53 Partly Cloudy 65 18.3 56 13.3 73 73 SSE 7 11 30.02 1017 10 16 0.00 0.00
3:53 pm 15:53 Sunny 79 26 45 7 30 30 S 12 19 29.94 1014 10 16 0.00 0.00
4:36 pm 16:36 Cloudy 65 18.3 55 12.8 70 70 S 7 11 29.97 1015 10 16 0.00 0.00
4:53 pm 16:53 Cloudy 65 18.3 55 12.8 70 70 SSW 5 7 29.99 1016 10 16 0.00 0.00
5:20 pm 17:20 Cloudy 64 18 55 13 73 73 SW 3 6 29.97 1015 10 16 0.00 0.00
5:53 pm 17:53 Mostly Cloudy 64 17.8 55 12.8 73 73 Calm 29.98 1015 10 16 0.00 0.00
6:01 pm 18:01 Mostly Clear 64 17.8 55 12.8 73 73 Calm 29.94 1014 10 16 0.00 0.00
6:53 pm 18:53 Clear 62 16.7 55 12.8 78 78 SSE 7 11 29.96 1015 10 16 0.00 0.00
7:08 pm 19:08 Mostly Cloudy 63 17 55 13 77 77 Calm 29.94 1014 10 16 0.00 0.00
7:53 pm 19:53 Mostly Cloudy 63 17.2 55 12.8 76 76 NNE 3 6 29.95 1014 10 16 0.00 0.00
8:44 pm 20:44 Cloudy 63 17 55 13 77 77 S 9 15 29.91 1013 10 16 0.00 0.00
8:53 pm 20:53 Cloudy 61 16.1 55 12.8 81 81 SSE 13 20 29.93 1013 10 16 0.00 0.00
9:53 pm 21:53 Cloudy 62 16.7 56 13.3 80 80 W 6 9 29.93 1014 10 16 0.00 0.00
10:53 pm 22:53 Cloudy 61 16.1 56 13.3 84 84 NNE 3 6 29.90 1013 10 16 0.00 0.00
11:53 pm 23:53 Cloudy 60 15.6 56 13.3 86 86 Calm 29.89 1012 10 16 0.00 0.00

Powered by AerisWeather